Retour au catalogue

STARLINK-32318

ActifCommunicationsVLEO
NORAD 61864·PAYLOAD·🇺🇸 United States

Lancé Nov 7, 2024 depuis Cape Canaveral Space Force Station

Loading…

Prochains Passages (prochaines 24 heures)

TLE

FraisSource: CelesTrak SupGP

Époque: Sep 15, 2026, 02:47 UTC

1 61864C 24202V   26258.11645833 -.00039817  00000+0 -14423-2 0  2582
2 61864  43.0010 248.5100 0001451 267.8461 122.7572 15.27594501    16

Suivez STARLINK-32318 en temps réel avec AllMySat

Download on the App Store